Datum;Zeit;Wirkleistung [kW]
;;
01.01.2019;00:15:00;91,06
01.01.2019;00:30:00;91,18
01.01.2019;00:45:00;89,34
01.01.2019;01:00:00;89,44
01.01.2019;01:15:00;88,3
01.01.2019;01:30:00;87,32
01.01.2019;01:45:00;85,96
01.01.2019;02:00:00;85,66
01.01.2019;02:15:00;84,94
01.01.2019;02:30:00;83,34
01.01.2019;02:45:00;84,8
01.01.2019;03:00:00;84
01.01.2019;03:15:00;83,5
01.01.2019;03:30:00;74,14
01.01.2019;03:45:00;59,94
01.01.2019;04:00:00;59,9
01.01.2019;04:15:00;60,4
01.01.2019;04:30:00;37,44
01.01.2019;04:45:00;33,04
01.01.2019;05:00:00;32,8
01.01.2019;05:15:00;31,96
01.01.2019;05:30:00;33,66
01.01.2019;05:45:00;44,56
01.01.2019;06:00:00;51,08
01.01.2019;06:15:00;44,4
01.01.2019;06:30:00;43,46
01.01.2019;06:45:00;52,48
01.01.2019;07:00:00;54,96
01.01.2019;07:15:00;55,8
01.01.2019;07:30:00;59,46
01.01.2019;07:45:00;54,7
01.01.2019;08:00:00;55,24
01.01.2019;08:15:00;63
01.01.2019;08:30:00;61,06
01.01.2019;08:45:00;65,54
01.01.2019;09:00:00;61,44
01.01.2019;09:15:00;61,84
01.01.2019;09:30:00;51,68
01.01.2019;09:45:00;69,22
01.01.2019;10:00:00;51,52
01.01.2019;10:15:00;49,64
01.01.2019;10:30:00;51,9
01.01.2019;10:45:00;49,54
01.01.2019;11:00:00;53,98
01.01.2019;11:15:00;52,8
01.01.2019;11:30:00;51,82
01.01.2019;11:45:00;48,24
01.01.2019;12:00:00;57,36
01.01.2019;12:15:00;56,9
01.01.2019;12:30:00;59,06
01.01.2019;12:45:00;58,64
01.01.2019;13:00:00;50,78
01.01.2019;13:15:00;48,68
01.01.2019;13:30:00;56,76
01.01.2019;13:45:00;46
01.01.2019;14:00:00;43,52
01.01.2019;14:15:00;45,6
01.01.2019;14:30:00;44,64
01.01.2019;14:45:00;45,38
01.01.2019;15:00:00;46,18
01.01.2019;15:15:00;48,26
01.01.2019;15:30:00;46,22
01.01.2019;15:45:00;54,88
01.01.2019;16:00:00;55,26
01.01.2019;16:15:00;43,92
01.01.2019;16:30:00;44,5
01.01.2019;16:45:00;46,44
01.01.2019;17:00:00;45,9
01.01.2019;17:15:00;58,78
01.01.2019;17:30:00;58,04
01.01.2019;17:45:00;47,56
01.01.2019;18:00:00;45,68
01.01.2019;18:15:00;45,42
01.01.2019;18:30:00;44,2
01.01.2019;18:45:00;44,38
01.01.2019;19:00:00;55,44
01.01.2019;19:15:00;48,34
01.01.2019;19:30:00;48,94
01.01.2019;19:45:00;44,46
01.01.2019;20:00:00;43,14
01.01.2019;20:15:00;42,92
01.01.2019;20:30:00;45,44
01.01.2019;20:45:00;52,98
01.01.2019;21:00:00;44,94
01.01.2019;21:15:00;37,36
01.01.2019;21:30:00;37,14
01.01.2019;21:45:00;36,6
01.01.2019;22:00:00;46,36
01.01.2019;22:15:00;46,1
01.01.2019;22:30:00;34,92
01.01.2019;22:45:00;36,14
01.01.2019;23:00:00;35,96
01.01.2019;23:15:00;36,62
01.01.2019;23:30:00;35,7
01.01.2019;23:45:00;35,56
02.01.2019;00:00:00;36,02
02.01.2019;00:15:00;45,28
02.01.2019;00:30:00;36,94
02.01.2019;00:45:00;33,82
02.01.2019;01:00:00;33
02.01.2019;01:15:00;35,08
02.01.2019;01:30:00;33,38
02.01.2019;01:45:00;33,08
02.01.2019;02:00:00;35,18
02.01.2019;02:15:00;34,18
02.01.2019;02:30:00;35,64
02.01.2019;02:45:00;34,08
02.01.2019;03:00:00;35
02.01.2019;03:15:00;32,92
02.01.2019;03:30:00;50,6
02.01.2019;03:45:00;50,32
02.01.2019;04:00:00;65,42
02.01.2019;04:15:00;68,3
02.01.2019;04:30:00;52,74
02.01.2019;04:45:00;36,44
02.01.2019;05:00:00;38,46
02.01.2019;05:15:00;37,76
02.01.2019;05:30:00;46,74
02.01.2019;05:45:00;39,72
02.01.2019;06:00:00;51,9
02.01.2019;06:15:00;58,26
02.01.2019;06:30:00;113,52
02.01.2019;06:45:00;158,68
02.01.2019;07:00:00;152,14
02.01.2019;07:15:00;129,58
02.01.2019;07:30:00;129,62
02.01.2019;07:45:00;152,46
02.01.2019;08:00:00;164,1
02.01.2019;08:15:00;167,06
02.01.2019;08:30:00;158,48
02.01.2019;08:45:00;149,56
02.01.2019;09:00:00;148,24
02.01.2019;09:15:00;168,04
02.01.2019;09:30:00;161,92
02.01.2019;09:45:00;169,8
02.01.2019;10:00:00;152,82
02.01.2019;10:15:00;170,22
02.01.2019;10:30:00;159,16
02.01.2019;10:45:00;165,06
02.01.2019;11:00:00;161,12
02.01.2019;11:15:00;149,2
02.01.2019;11:30:00;152,18
02.01.2019;11:45:00;128,42
02.01.2019;12:00:00;126,72
02.01.2019;12:15:00;146,72
02.01.2019;12:30:00;112,64
02.01.2019;12:45:00;122,06
02.01.2019;13:00:00;119,34
02.01.2019;13:15:00;127,82
02.01.2019;13:30:00;102,1
02.01.2019;13:45:00;107,66
02.01.2019;14:00:00;102,6
02.01.2019;14:15:00;97,36
02.01.2019;14:30:00;109,82
02.01.2019;14:45:00;91,86
02.01.2019;15:00:00;88,44
02.01.2019;15:15:00;78,6
02.01.2019;15:30:00;81,22
02.01.2019;15:45:00;87,26
02.01.2019;16:00:00;81,12
02.01.2019;16:15:00;70,4
02.01.2019;16:30:00;83,34
02.01.2019;16:45:00;86,64
02.01.2019;17:00:00;88,06
02.01.2019;17:15:00;83,5
02.01.2019;17:30:00;81,1
02.01.2019;17:45:00;87,88
02.01.2019;18:00:00;81,74
02.01.2019;18:15:00;83,66
02.01.2019;18:30:00;80,56
02.01.2019;18:45:00;77,88
02.01.2019;19:00:00;79,7
02.01.2019;19:15:00;78,34
02.01.2019;19:30:00;75,92
02.01.2019;19:45:00;71,98
02.01.2019;20:00:00;94
02.01.2019;20:15:00;90,64
02.01.2019;20:30:00;90,78
02.01.2019;20:45:00;93,82
02.01.2019;21:00:00;94,86
02.01.2019;21:15:00;85,84
02.01.2019;21:30:00;57,1
02.01.2019;21:45:00;38,68
02.01.2019;22:00:00;42,4
02.01.2019;22:15:00;41,66
02.01.2019;22:30:00;39,98
02.01.2019;22:45:00;40,86
02.01.2019;23:00:00;40,88
02.01.2019;23:15:00;40,48
02.01.2019;23:30:00;41,24
02.01.2019;23:45:00;40,12
03.01.2019;00:00:00;39,86
03.01.2019;00:15:00;38,92
03.01.2019;00:30:00;39,86
03.01.2019;00:45:00;39,8
03.01.2019;01:00:00;43,12
03.01.2019;01:15:00;43,1
03.01.2019;01:30:00;39,34
03.01.2019;01:45:00;39,52
03.01.2019;02:00:00;39,9
03.01.2019;02:15:00;40,02
03.01.2019;02:30:00;40,04
03.01.2019;02:45:00;41,62
03.01.2019;03:00:00;40,78
03.01.2019;03:15:00;51,8
03.01.2019;03:30:00;58,82
03.01.2019;03:45:00;68,34
03.01.2019;04:00:00;60,16
03.01.2019;04:15:00;42,42
03.01.2019;04:30:00;39,78
03.01.2019;04:45:00;42,02
03.01.2019;05:00:00;39,38
03.01.2019;05:15:00;42,9
03.01.2019;05:30:00;42,58
03.01.2019;05:45:00;50,18
03.01.2019;06:00:00;60,32
03.01.2019;06:15:00;63,3
03.01.2019;06:30:00;102,94
03.01.2019;06:45:00;130,3
03.01.2019;07:00:00;138,98
03.01.2019;07:15:00;125,8
03.01.2019;07:30:00;114,66
03.01.2019;07:45:00;126,16
03.01.2019;08:00:00;133,54
03.01.2019;08:15:00;129,4
03.01.2019;08:30:00;118,5
03.01.2019;08:45:00;136,76
03.01.2019;09:00:00;146,48
03.01.2019;09:15:00;139,26
03.01.2019;09:30:00;133,58
03.01.2019;09:45:00;121,1
03.01.2019;10:00:00;120,22
03.01.2019;10:15:00;123,18
03.01.2019;10:30:00;128,1
03.01.2019;10:45:00;120,26
03.01.2019;11:00:00;110,28
03.01.2019;11:15:00;109,64
03.01.2019;11:30:00;93,88
03.01.2019;11:45:00;85,48
03.01.2019;12:00:00;91
03.01.2019;12:15:00;102,64
03.01.2019;12:30:00;104,34
03.01.2019;12:45:00;106,14
03.01.2019;13:00:00;85,84
03.01.2019;13:15:00;81,1
03.01.2019;13:30:00;70,54
03.01.2019;13:45:00;84,68
03.01.2019;14:00:00;99,78
03.01.2019;14:15:00;93,44
03.01.2019;14:30:00;98,24
03.01.2019;14:45:00;83,08
03.01.2019;15:00:00;86,08
03.01.2019;15:15:00;104,22
03.01.2019;15:30:00;119,98
03.01.2019;15:45:00;107,18
03.01.2019;16:00:00;70,68
03.01.2019;16:15:00;93,58
03.01.2019;16:30:00;109
03.01.2019;16:45:00;114,08
03.01.2019;17:00:00;93,88
03.01.2019;17:15:00;99,74
03.01.2019;17:30:00;87,6
03.01.2019;17:45:00;90,26
03.01.2019;18:00:00;88,36
03.01.2019;18:15:00;79,64
03.01.2019;18:30:00;78,5
03.01.2019;18:45:00;83,74
03.01.2019;19:00:00;94,28
03.01.2019;19:15:00;94,06
03.01.2019;19:30:00;88,98
03.01.2019;19:45:00;87,48
03.01.2019;20:00:00;81,6
03.01.2019;20:15:00;82,7
03.01.2019;20:30:00;83,2
03.01.2019;20:45:00;88,06
03.01.2019;21:00:00;93,04
03.01.2019;21:15:00;81,12
03.01.2019;21:30:00;79,44
03.01.2019;21:45:00;84,48
03.01.2019;22:00:00;84,34
03.01.2019;22:15:00;76,38
03.01.2019;22:30:00;82,44
03.01.2019;22:45:00;60,32
03.01.2019;23:00:00;58,58
03.01.2019;23:15:00;64,76
03.01.2019;23:30:00;67,52
03.01.2019;23:45:00;49,62
04.01.2019;00:00:00;45,74
04.01.2019;00:15:00;44,52
04.01.2019;00:30:00;53,32
04.01.2019;00:45:00;51,64
04.01.2019;01:00:00;44,98
04.01.2019;01:15:00;44,28
04.01.2019;01:30:00;43,92
04.01.2019;01:45:00;43,92
04.01.2019;02:00:00;44,46
04.01.2019;02:15:00;45,02
04.01.2019;02:30:00;53,2
04.01.2019;02:45:00;49,98
04.01.2019;03:00:00;42,8
04.01.2019;03:15:00;54,28
04.01.2019;03:30:00;64,74
04.01.2019;03:45:00;74,4
04.01.2019;04:00:00;74,86
04.01.2019;04:15:00;56,68
04.01.2019;04:30:00;43,3
04.01.2019;04:45:00;42,72
04.01.2019;05:00:00;44,58
04.01.2019;05:15:00;50,84
04.01.2019;05:30:00;52,68
04.01.2019;05:45:00;46,9
04.01.2019;06:00:00;59,2
04.01.2019;06:15:00;67,18
04.01.2019;06:30:00;101,6
04.01.2019;06:45:00;164,8
04.01.2019;07:00:00;146,1
04.01.2019;07:15:00;138,16
04.01.2019;07:30:00;120,86
04.01.2019;07:45:00;141,1
04.01.2019;08:00:00;143,52
04.01.2019;08:15:00;147,84
04.01.2019;08:30:00;150,52
04.01.2019;08:45:00;156,08
04.01.2019;09:00:00;158,18
04.01.2019;09:15:00;132,22
04.01.2019;09:30:00;135,62
04.01.2019;09:45:00;147,74
04.01.2019;10:00:00;129,3
04.01.2019;10:15:00;127,9
04.01.2019;10:30:00;130,88
04.01.2019;10:45:00;141,6
04.01.2019;11:00:00;131,4
04.01.2019;11:15:00;126,1
04.01.2019;11:30:00;97,2
04.01.2019;11:45:00;91,7
04.01.2019;12:00:00;103,22
04.01.2019;12:15:00;115,3
04.01.2019;12:30:00;110,4
04.01.2019;12:45:00;106,64
04.01.2019;13:00:00;96,9
04.01.2019;13:15:00;88,28
04.01.2019;13:30:00;84,34
04.01.2019;13:45:00;89,3
04.01.2019;14:00:00;98,68
04.01.2019;14:15:00;131,08
04.01.2019;14:30:00;145,02
04.01.2019;14:45:00;121,96
04.01.2019;15:00:00;111,34
04.01.2019;15:15:00;105,64
04.01.2019;15:30:00;101,2
04.01.2019;15:45:00;105
04.01.2019;16:00:00;94,76
04.01.2019;16:15:00;112,12
04.01.2019;16:30:00;106,18
04.01.2019;16:45:00;85,68
04.01.2019;17:00:00;78,24
04.01.2019;17:15:00;87,34
04.01.2019;17:30:00;91,78
04.01.2019;17:45:00;99,64
04.01.2019;18:00:00;93,86
04.01.2019;18:15:00;82,36
04.01.2019;18:30:00;74,82
04.01.2019;18:45:00;72,84
04.01.2019;19:00:00;82,72
04.01.2019;19:15:00;80,56
04.01.2019;19:30:00;78,9
04.01.2019;19:45:00;77,5
04.01.2019;20:00:00;56,64
04.01.2019;20:15:00;48,14
04.01.2019;20:30:00;43,92
04.01.2019;20:45:00;43,6
04.01.2019;21:00:00;50,26
04.01.2019;21:15:00;54,66
04.01.2019;21:30:00;51,72
04.01.2019;21:45:00;41
04.01.2019;22:00:00;40,62
04.01.2019;22:15:00;41,76
04.01.2019;22:30:00;40,52
04.01.2019;22:45:00;40,24
04.01.2019;23:00:00;41,54
04.01.2019;23:15:00;46,64
04.01.2019;23:30:00;48,74
04.01.2019;23:45:00;38,54
05.01.2019;00:00:00;40,84
05.01.2019;00:15:00;50,54
05.01.2019;00:30:00;47,06
05.01.2019;00:45:00;39,48
05.01.2019;01:00:00;39,76
05.01.2019;01:15:00;39,42
05.01.2019;01:30:00;38,68
05.01.2019;01:45:00;38,62
05.01.2019;02:00:00;38,56
05.01.2019;02:15:00;38,26
05.01.2019;02:30:00;38,36
05.01.2019;02:45:00;37,62
05.01.2019;03:00:00;38,76
05.01.2019;03:15:00;39,46
05.01.2019;03:30:00;37,32
05.01.2019;03:45:00;37,9
05.01.2019;04:00:00;44,48
05.01.2019;04:15:00;49,72
05.01.2019;04:30:00;45,9
05.01.2019;04:45:00;38,1
05.01.2019;05:00:00;39,18
05.01.2019;05:15:00;39,7
05.01.2019;05:30:00;41,08
05.01.2019;05:45:00;43,02
05.01.2019;06:00:00;51,8
05.01.2019;06:15:00;57,02
05.01.2019;06:30:00;59,82
05.01.2019;06:45:00;65,44
05.01.2019;07:00:00;60,02
05.01.2019;07:15:00;61,56
05.01.2019;07:30:00;61,7
05.01.2019;07:45:00;71,14
05.01.2019;08:00:00;83,18
05.01.2019;08:15:00;85,06
05.01.2019;08:30:00;94,98
05.01.2019;08:45:00;93,34
05.01.2019;09:00:00;96,06
05.01.2019;09:15:00;107,34
05.01.2019;09:30:00;122,92
05.01.2019;09:45:00;118,24
05.01.2019;10:00:00;104,8
05.01.2019;10:15:00;104,6
05.01.2019;10:30:00;101,5
05.01.2019;10:45:00;102,08
05.01.2019;11:00:00;105,56
05.01.2019;11:15:00;123,92
05.01.2019;11:30:00;129,88
05.01.2019;11:45:00;134,46
05.01.2019;12:00:00;136,46
05.01.2019;12:15:00;129,02
05.01.2019;12:30:00;129,72
05.01.2019;12:45:00;121,24
05.01.2019;13:00:00;108,48
05.01.2019;13:15:00;113,72
05.01.2019;13:30:00;115,82
05.01.2019;13:45:00;111,8
05.01.2019;14:00:00;106,92
05.01.2019;14:15:00;105,9
05.01.2019;14:30:00;107,88
05.01.2019;14:45:00;109,38
05.01.2019;15:00:00;102,26
05.01.2019;15:15:00;103,4
05.01.2019;15:30:00;102,74
05.01.2019;15:45:00;113,8
05.01.2019;16:00:00;111,32
05.01.2019;16:15:00;110,64
05.01.2019;16:30:00;111,66
05.01.2019;16:45:00;103,2
05.01.2019;17:00:00;113,36
05.01.2019;17:15:00;98,18
05.01.2019;17:30:00;84,32
05.01.2019;17:45:00;74,5
05.01.2019;18:00:00;81,22
05.01.2019;18:15:00;79,02
05.01.2019;18:30:00;69,52
05.01.2019;18:45:00;63,34
05.01.2019;19:00:00;64,84
05.01.2019;19:15:00;73,26
05.01.2019;19:30:00;72,36
05.01.2019;19:45:00;69,06
05.01.2019;20:00:00;54,6
05.01.2019;20:15:00;48,02
05.01.2019;20:30:00;50,42
05.01.2019;20:45:00;56,7
05.01.2019;21:00:00;52,38
05.01.2019;21:15:00;45,34
05.01.2019;21:30:00;45,44
05.01.2019;21:45:00;47,64
05.01.2019;22:00:00;56,28
05.01.2019;22:15:00;55,24
05.01.2019;22:30:00;56,16
05.01.2019;22:45:00;47,74
05.01.2019;23:00:00;44,22
05.01.2019;23:15:00;44,2
05.01.2019;23:30:00;43,96
05.01.2019;23:45:00;42,88
06.01.2019;00:00:00;43,58
06.01.2019;00:15:00;43,06
06.01.2019;00:30:00;40,98
06.01.2019;00:45:00;40,88
06.01.2019;01:00:00;41,84
06.01.2019;01:15:00;40,16
06.01.2019;01:30:00;40,28
06.01.2019;01:45:00;41,16
06.01.2019;02:00:00;41,12
06.01.2019;02:15:00;41,64
06.01.2019;02:30:00;41,3
06.01.2019;02:45:00;41,34
06.01.2019;03:00:00;41,72
06.01.2019;03:15:00;51,58
06.01.2019;03:30:00;43,44
06.01.2019;03:45:00;42,38
06.01.2019;04:00:00;41,42
06.01.2019;04:15:00;38,52
06.01.2019;04:30:00;40,02
06.01.2019;04:45:00;41,62
06.01.2019;05:00:00;41,98
06.01.2019;05:15:00;41,18
06.01.2019;05:30:00;43,3
06.01.2019;05:45:00;42,12
06.01.2019;06:00:00;52
06.01.2019;06:15:00;57,26
06.01.2019;06:30:00;53,4
06.01.2019;06:45:00;59,94
06.01.2019;07:00:00;65,28
06.01.2019;07:15:00;67,18
06.01.2019;07:30:00;77,3
06.01.2019;07:45:00;70,06
06.01.2019;08:00:00;62,74
06.01.2019;08:15:00;59,5
06.01.2019;08:30:00;72,52
06.01.2019;08:45:00;73,08
06.01.2019;09:00:00;79,42
06.01.2019;09:15:00;84,72
06.01.2019;09:30:00;86,32
06.01.2019;09:45:00;61,44
06.01.2019;10:00:00;62,84
06.01.2019;10:15:00;67,98
06.01.2019;10:30:00;60,44
06.01.2019;10:45:00;60,46
06.01.2019;11:00:00;72,26
06.01.2019;11:15:00;67,18
06.01.2019;11:30:00;55
06.01.2019;11:45:00;55,04
06.01.2019;12:00:00;68,96
06.01.2019;12:15:00;75,76
06.01.2019;12:30:00;67,8
06.01.2019;12:45:00;56,58
06.01.2019;13:00:00;55,46
06.01.2019;13:15:00;54,04
06.01.2019;13:30:00;63,96
06.01.2019;13:45:00;54,76
06.01.2019;14:00:00;49,2
06.01.2019;14:15:00;47,84
06.01.2019;14:30:00;49,06
06.01.2019;14:45:00;56,54
06.01.2019;15:00:00;52,06
06.01.2019;15:15:00;60,02
06.01.2019;15:30:00;59,38
06.01.2019;15:45:00;55,56
06.01.2019;16:00:00;50,08
06.01.2019;16:15:00;48,14
06.01.2019;16:30:00;51,3
06.01.2019;16:45:00;59,48
06.01.2019;17:00:00;62,7
06.01.2019;17:15:00;53,66
06.01.2019;17:30:00;50,36
06.01.2019;17:45:00;51,58
06.01.2019;18:00:00;54,5
06.01.2019;18:15:00;49,42
06.01.2019;18:30:00;51,16
06.01.2019;18:45:00;62,42
06.01.2019;19:00:00;54,92
06.01.2019;19:15:00;51
06.01.2019;19:30:00;50,9
06.01.2019;19:45:00;54,16
06.01.2019;20:00:00;59,02
06.01.2019;20:15:00;57,9
06.01.2019;20:30:00;49,22
06.01.2019;20:45:00;44,88
06.01.2019;21:00:00;45,42
06.01.2019;21:15:00;44,88
06.01.2019;21:30:00;54,7
06.01.2019;21:45:00;55,68
06.01.2019;22:00:00;44,94
06.01.2019;22:15:00;45,16
06.01.2019;22:30:00;43,58
06.01.2019;22:45:00;42,52
06.01.2019;23:00:00;43,58
06.01.2019;23:15:00;42,26
06.01.2019;23:30:00;42,16
06.01.2019;23:45:00;41,96
07.01.2019;00:00:00;42,36
07.01.2019;00:15:00;40,54
07.01.2019;00:30:00;42,16
07.01.2019;00:45:00;40,8
07.01.2019;01:00:00;40,9
07.01.2019;01:15:00;41,38
07.01.2019;01:30:00;40,32
07.01.2019;01:45:00;41,36
07.01.2019;02:00:00;41,08
07.01.2019;02:15:00;41,4
07.01.2019;02:30:00;40,76
07.01.2019;02:45:00;40,62
07.01.2019;03:00:00;39,82
07.01.2019;03:15:00;39,46
07.01.2019;03:30:00;39,56
07.01.2019;03:45:00;40,08
07.01.2019;04:00:00;39,64
07.01.2019;04:15:00;39,3
07.01.2019;04:30:00;41,28
07.01.2019;04:45:00;42,52
07.01.2019;05:00:00;44,2
07.01.2019;05:15:00;42,24
07.01.2019;05:30:00;55,42
07.01.2019;05:45:00;55,62
07.01.2019;06:00:00;68,36
07.01.2019;06:15:00;71,18
07.01.2019;06:30:00;69,32
07.01.2019;06:45:00;123,4
07.01.2019;07:00:00;118,94
07.01.2019;07:15:00;119,06
07.01.2019;07:30:00;104,02
07.01.2019;07:45:00;130,46
07.01.2019;08:00:00;171,96
07.01.2019;08:15:00;157,12
07.01.2019;08:30:00;152,2
07.01.2019;08:45:00;139,2
07.01.2019;09:00:00;154,62
07.01.2019;09:15:00;148
07.01.2019;09:30:00;152,32
07.01.2019;09:45:00;145,22
07.01.2019;10:00:00;164,96
07.01.2019;10:15:00;158,1
07.01.2019;10:30:00;154,64
07.01.2019;10:45:00;157,86
07.01.2019;11:00:00;159,64
07.01.2019;11:15:00;153,14
07.01.2019;11:30:00;126,04
07.01.2019;11:45:00;99,54
07.01.2019;12:00:00;104,62
07.01.2019;12:15:00;103,24
07.01.2019;12:30:00;102,64
07.01.2019;12:45:00;97,28
07.01.2019;13:00:00;92,56
07.01.2019;13:15:00;89,78
07.01.2019;13:30:00;92,1
07.01.2019;13:45:00;92
07.01.2019;14:00:00;110,54
07.01.2019;14:15:00;134,12
07.01.2019;14:30:00;121,84
07.01.2019;14:45:00;115,04
07.01.2019;15:00:00;98,88
07.01.2019;15:15:00;99,38
07.01.2019;15:30:00;98,16
07.01.2019;15:45:00;112,88
07.01.2019;16:00:00;103,34
07.01.2019;16:15:00;97,76
07.01.2019;16:30:00;105,92
07.01.2019;16:45:00;102,22
07.01.2019;17:00:00;86,4
07.01.2019;17:15:00;86,64
07.01.2019;17:30:00;84,16
07.01.2019;17:45:00;75,52
07.01.2019;18:00:00;66,88
07.01.2019;18:15:00;62,66
07.01.2019;18:30:00;65,4
07.01.2019;18:45:00;66,58
07.01.2019;19:00:00;61,9
07.01.2019;19:15:00;45,38
07.01.2019;19:30:00;48,6
07.01.2019;19:45:00;42,22
07.01.2019;20:00:00;42,36
07.01.2019;20:15:00;43,64
07.01.2019;20:30:00;41,42
07.01.2019;20:45:00;39,6
07.01.2019;21:00:00;40,86
07.01.2019;21:15:00;38,88
07.01.2019;21:30:00;36,7
07.01.2019;21:45:00;42,28
07.01.2019;22:00:00;45,66
07.01.2019;22:15:00;44,74
07.01.2019;22:30:00;42,24
07.01.2019;22:45:00;33,42
07.01.2019;23:00:00;40,9
07.01.2019;23:15:00;44,76
07.01.2019;23:30:00;45,6
07.01.2019;23:45:00;43,82
08.01.2019;00:00:00;33,76
08.01.2019;00:15:00;31,68
08.01.2019;00:30:00;30,06
08.01.2019;00:45:00;29,3
08.01.2019;01:00:00;30,78
08.01.2019;01:15:00;30,86
08.01.2019;01:30:00;32,48
08.01.2019;01:45:00;32,1
08.01.2019;02:00:00;30,74
08.01.2019;02:15:00;27,4
08.01.2019;02:30:00;28,78
08.01.2019;02:45:00;28,86
08.01.2019;03:00:00;30,36
08.01.2019;03:15:00;29,72
08.01.2019;03:30:00;45,78
08.01.2019;03:45:00;47,58
08.01.2019;04:00:00;62,48
08.01.2019;04:15:00;64,38
08.01.2019;04:30:00;49,48
08.01.2019;04:45:00;34,62
08.01.2019;05:00:00;41,4
08.01.2019;05:15:00;45,62
08.01.2019;05:30:00;39,4
08.01.2019;05:45:00;38,6
08.01.2019;06:00:00;48,06
08.01.2019;06:15:00;45,14
08.01.2019;06:30:00;47,24
08.01.2019;06:45:00;76
08.01.2019;07:00:00;90,96
08.01.2019;07:15:00;116,02
08.01.2019;07:30:00;146,64
08.01.2019;07:45:00;141,76
08.01.2019;08:00:00;140,64
08.01.2019;08:15:00;119,74
08.01.2019;08:30:00;118,48
08.01.2019;08:45:00;136,4
08.01.2019;09:00:00;158,68
08.01.2019;09:15:00;167,92
08.01.2019;09:30:00;160,5
08.01.2019;09:45:00;128,14
08.01.2019;10:00:00;128,38
08.01.2019;10:15:00;139,06
08.01.2019;10:30:00;137,9
08.01.2019;10:45:00;147,5
08.01.2019;11:00:00;118
08.01.2019;11:15:00;107,62
08.01.2019;11:30:00;91,42
08.01.2019;11:45:00;80,12
08.01.2019;12:00:00;75,32
08.01.2019;12:15:00;78,48
08.01.2019;12:30:00;78,9
08.01.2019;12:45:00;79,58
08.01.2019;13:00:00;81,86
08.01.2019;13:15:00;81,06
08.01.2019;13:30:00;68,56
08.01.2019;13:45:00;59,34
08.01.2019;14:00:00;56,9
08.01.2019;14:15:00;52,34
08.01.2019;14:30:00;57,74
08.01.2019;14:45:00;64,94
08.01.2019;15:00:00;60,04
08.01.2019;15:15:00;64,5
08.01.2019;15:30:00;61,26
08.01.2019;15:45:00;53,5
08.01.2019;16:00:00;50,04
08.01.2019;16:15:00;53,32
08.01.2019;16:30:00;53,98
08.01.2019;16:45:00;52,84
08.01.2019;17:00:00;54,46
08.01.2019;17:15:00;52,12
08.01.2019;17:30:00;55,1
08.01.2019;17:45:00;60,62
08.01.2019;18:00:00;65,62
08.01.2019;18:15:00;69,36
08.01.2019;18:30:00;57,32
08.01.2019;18:45:00;53,64
08.01.2019;19:00:00;49,82
08.01.2019;19:15:00;51,1
08.01.2019;19:30:00;48,92
08.01.2019;19:45:00;44,92
08.01.2019;20:00:00;46,12
08.01.2019;20:15:00;42,38
08.01.2019;20:30:00;42,48
08.01.2019;20:45:00;49,34
08.01.2019;21:00:00;52,62
08.01.2019;21:15:00;51,06
08.01.2019;21:30:00;39,24
08.01.2019;21:45:00;36,94
08.01.2019;22:00:00;38,18
08.01.2019;22:15:00;36,26
08.01.2019;22:30:00;35,06
08.01.2019;22:45:00;34,64
08.01.2019;23:00:00;35,7
08.01.2019;23:15:00;34,72
08.01.2019;23:30:00;32,4
08.01.2019;23:45:00;32,8
09.01.2019;00:00:00;35,06
09.01.2019;00:15:00;33,98
09.01.2019;00:30:00;31,46
09.01.2019;00:45:00;32,18
09.01.2019;01:00:00;34,1
09.01.2019;01:15:00;43,56
09.01.2019;01:30:00;34,62
09.01.2019;01:45:00;32,46
09.01.2019;02:00:00;32,36
09.01.2019;02:15:00;37,72
09.01.2019;02:30:00;43,06
09.01.2019;02:45:00;32,52
09.01.2019;03:00:00;32,5
09.01.2019;03:15:00;40,94
09.01.2019;03:30:00;50,3
09.01.2019;03:45:00;58,98
09.01.2019;04:00:00;54,62
09.01.2019;04:15:00;34,4
09.01.2019;04:30:00;34,04
09.01.2019;04:45:00;33,9
09.01.2019;05:00:00;34,36
09.01.2019;05:15:00;34,02
09.01.2019;05:30:00;40,96
09.01.2019;05:45:00;37,08
09.01.2019;06:00:00;47,04
09.01.2019;06:15:00;60,1
09.01.2019;06:30:00;55,56
09.01.2019;06:45:00;55,12
09.01.2019;07:00:00;63,14
09.01.2019;07:15:00;109,84
09.01.2019;07:30:00;152
09.01.2019;07:45:00;134,94
09.01.2019;08:00:00;131,22
09.01.2019;08:15:00;116,5
09.01.2019;08:30:00;126,82
09.01.2019;08:45:00;139,88
09.01.2019;09:00:00;147,16
09.01.2019;09:15:00;160,08
09.01.2019;09:30:00;144,2
09.01.2019;09:45:00;126,94
09.01.2019;10:00:00;128,98
09.01.2019;10:15:00;145,04
09.01.2019;10:30:00;148,26
09.01.2019;10:45:00;133,12
09.01.2019;11:00:00;130,38
09.01.2019;11:15:00;140,1
09.01.2019;11:30:00;124,34
09.01.2019;11:45:00;111,72
09.01.2019;12:00:00;130,38
09.01.2019;12:15:00;114,36
09.01.2019;12:30:00;104,22
09.01.2019;12:45:00;103,24
09.01.2019;13:00:00;87,76
09.01.2019;13:15:00;77,96
09.01.2019;13:30:00;75,58
09.01.2019;13:45:00;65,34
09.01.2019;14:00:00;60,4
09.01.2019;14:15:00;63,12
09.01.2019;14:30:00;63,58
09.01.2019;14:45:00;61,46
09.01.2019;15:00:00;54,6
09.01.2019;15:15:00;54,46
09.01.2019;15:30:00;59,5
09.01.2019;15:45:00;56,32
09.01.2019;16:00:00;56,34
09.01.2019;16:15:00;78,96
09.01.2019;16:30:00;86,3
09.01.2019;16:45:00;91,5
09.01.2019;17:00:00;89,86
09.01.2019;17:15:00;100,32
09.01.2019;17:30:00;96,72
09.01.2019;17:45:00;98,12
09.01.2019;18:00:00;100,26
09.01.2019;18:15:00;104,6
09.01.2019;18:30:00;89,86
09.01.2019;18:45:00;83,38
09.01.2019;19:00:00;86,8
09.01.2019;19:15:00;84,52
09.01.2019;19:30:00;82,24
09.01.2019;19:45:00;84,26
09.01.2019;20:00:00;93,64
09.01.2019;20:15:00;94
09.01.2019;20:30:00;94,36
09.01.2019;20:45:00;101,42
09.01.2019;21:00:00;101,2
09.01.2019;21:15:00;88,28
09.01.2019;21:30:00;87,82
09.01.2019;21:45:00;70,7
09.01.2019;22:00:00;55,62
09.01.2019;22:15:00;63,4
09.01.2019;22:30:00;76,46
09.01.2019;22:45:00;89,58
09.01.2019;23:00:00;67,16
09.01.2019;23:15:00;74,16
09.01.2019;23:30:00;46,26
09.01.2019;23:45:00;43,02
10.01.2019;00:00:00;43,74
10.01.2019;00:15:00;43,06
10.01.2019;00:30:00;43,28
10.01.2019;00:45:00;37,2
10.01.2019;01:00:00;30,14
10.01.2019;01:15:00;30,98
10.01.2019;01:30:00;30,66
10.01.2019;01:45:00;31,94
10.01.2019;02:00:00;30,24
10.01.2019;02:15:00;30,78
10.01.2019;02:30:00;30,42
10.01.2019;02:45:00;30,82
10.01.2019;03:00:00;31,34
10.01.2019;03:15:00;28,82
10.01.2019;03:30:00;28,72
10.01.2019;03:45:00;30,4
10.01.2019;04:00:00;31,26
10.01.2019;04:15:00;43,86
10.01.2019;04:30:00;38,12
10.01.2019;04:45:00;47,86
10.01.2019;05:00:00;44,38
10.01.2019;05:15:00;41,38
10.01.2019;05:30:00;41,12
10.01.2019;05:45:00;36,74
10.01.2019;06:00:00;42,64